High Level Airport
CYOJ : now visible

Airfield :











YOU CAN JOIN US ON...

 
LOGIN :

Register | Disclaimer

   EN    FR    IT 

 









Legend :    VFR   Marginal VFR   IFR   Intensive IFR   Very Intensive IFR
Visi :
Ceiling :
>= 8 km
>= 3000ft
5 to 8 km
1000 to 3000 ft
1500m to 5 km
500 to 1000 ft
800 to 1500m
200 to 500 ft
< 800m
< 200 ft
Symbols :   Thunderstorms  Fog  Heavy snow  Heavy precipitations  Wind > 20 kt






- Airport Elevation : 1110 ft
- IATA code : YOJ


CYOJ - High Level

CURRENT METAR :
  • 240502Z AUTO 21002KT 9SM SCT023 M28/M30 A3002 RMK SLP216

EXPIRED METARs :
  • 240400Z 26002KT 15SM SCT021 M30/M32 A3004 RMK SC3 SLP220
  • 240300Z 28002KT 15SM FEW020 M31/M34 A3005 RMK SC1 FROIN SLP227

TAF TAF CYOJ
Valid from the 24 at 01:00 until the 24 at 13:00 UTC


240038Z 2401/2413 12008KT P6SM FEW020
FM240800 12008KT P6SM SCT012
TEMPO 2408/2413 BKN012 RMK NXT FCST BY 240700Z
CZEG FIR / North America



MET'MAP, your aeronautical weather chart ! - Copyright ORBIFLY December 2007 - Disclaimer

ORBIFLY MET'MAP TEAM :

Programming & Development : Alexandra Zaïnal
Concept & original design : Baudouin d'Aumeries
Assistance for programming : Marc-Olivier Méhu
Technical & hardware support : Manuel Goepfert

Contact : metmap@orbifly.com




SOURCES & CREDITS :

   NOAA       Earth
Advisory